Temp
-12 -13 -14 -14 -13 -13 -11 -11 -11 -9 -9 -10 -10 -11 -11 -10 -11 -11 -11 -11 -11 -12 -12 -12 -12 -13 -13 -13 -13 -13 -13 -14 -14 -14 -14 -14 -14 -14 -15 -15 -16 -16 -16 -17
-12 -13 -14 -13 -12 -12 -11 -11 -9 -10 -9 -9 -10 -10 -10 -10 -11 -11 -11 -11 -12 -12 -12 -13 -13 -13 -13 -13 -13 -13 -14 -14 -14 -14 -14 -14 -14 -15 -16 -16 -16 -17 -17 -18
-12 -13 -13 -12 -10 -11 -11 -10 -10 -9 -10 -11 -10 -11 -11 -11 -11 -11 -11 -12 -12 -13 -13 -13 -13 -13 -13 -14 -14 -13 -14 -14 -14 -15 -15 -15 -15 -16 -17 -17 -17 -17 -18 -21
-13 -13 -14 -9 -11 -11 -11 -11 -11 -10 -10 -11 -11 -11 -11 -11 -11 -12 -12 -13 -13 -13 -13 -14 -14 -13 -14 -14 -14 -15 -14 -15 -14 -15 -15 -16 -17 -17 -17 -17 -17 -19 -21 -24
-14 -13 -12 -10 -10 -12 -12 -11 -12 -11 -12 -12 -12 -11 -11 -12 -12 -13 -13 -13 -14 -14 -14 -14 -14 -13 -13 -14 -15 -15 -15 -15 -15 -16 -16 -17 -17 -17 -17 -18 -20 -21 -24 -25
-14 -14 -12 -10 -11 -11 -12 -10 -11 -12 -12 -12 -12 -11 -12 -13 -13 -13 -13 -14 -14 -14 -14 -14 -14 -14 -15 -15 -15 -15 -15 -16 -16 -17 -17 -17 -17 -18 -18 -19 -21 -23 -25 -26
-14 -14 -12 -12 -11 -11 -11 -10 -12 -13 -13 -13 -12 -12 -13 -13 -13 -13 -14 -14 -14 -14 -14 -14 -14 -15 -15 -16 -16 -16 -16 -16 -17 -17 -17 -18 -18 -18 -19 -21 -23 -25 -26 -27
-14 -14 -13 -12 -11 -11 -12 -12 -12 -12 -12 -12 -12 -12 -13 -13 -13 -13 -13 -13 -14 -14 -14 -14 -15 -16 -16 -16 -16 -16 -17 -17 -18 -18 -18 -18 -18 -20 -21 -23 -25 -26 -27 -27
-15 -14 -14 -13 -13 -13 -13 -12 -12 -12 -13 -13 -13 -13 -13 -14 -14 -14 -14 -14 -14 -14 -15 -16 -16 -16 -16 -17 -17 -17 -17 -18 -18 -18 -18 -18 -20 -22 -24 -25 -26 -27 -27 -27
-15 -15 -14 -14 -14 -14 -14 -13 -13 -13 -14 -14 -14 -13 -14 -14 -14 -14 -14 -14 -14 -15 -16 -16 -16 -17 -17 -17 -17 -18 -18 -19 -18 -18 -19 -21 -22 -24 -25 -26 -27 -27 -27 -27
-16 -15 -15 -15 -15 -14 -14 -14 -14 -14 -14 -14 -14 -14 -14 -14 -14 -14 -15 -15 -15 -16 -16 -16 -16 -17 -17 -18 -18 -19 -19 -19 -19 -20 -21 -22 -24 -26 -27 -28 -28 -28 -28 -28
-16 -16 -16 -16 -15 -15 -15 -15 -15 -15 -15 -15 -15 -15 -15 -14 -15 -15 -15 -16 -16 -16 -16 -16 -17 -18 -18 -19 -19 -19 -19 -20 -20 -21 -23 -24 -26 -27 -28 -28 -28 -28 -28 -28
-17 -17 -16 -16 -16 -16 -16 -16 -15 -15 -15 -15 -15 -15 -15 -15 -15 -15 -16 -16 -16 -16 -16 -17 -18 -18 -19 -19 -20 -20 -20 -21 -22 -23 -25 -26 -27 -28 -28 -28 -29 -29 -28 -28
-17 -17 -17 -17 -17 -16 -16 -16 -16 -15 -15 -16 -16 -15 -15 -15 -15 -16 -16 -16 -16 -17 -18 -18 -19 -19 -19 -20 -20 -21 -22 -22 -24 -26 -27 -27 -28 -28 -28 -28 -28 -28 -29 -29
-18 -17 -17 -16 -16 -17 -17 -16 -16 -16 -16 -16 -16 -16 -16 -16 -17 -17 -17 -17 -18 -19 -19 -20 -20 -20 -20 -21 -21 -22 -24 -26 -27 -28 -28 -28 -28 -28 -28 -28 -28 -28 -29 -29
-18 -18 -17 -17 -17 -16 -17 -17 -17 -17 -17 -17 -17 -17 -18 -18 -17 -18 -19 -19 -20 -19 -20 -20 -20 -20 -22 -22 -23 -25 -27 -28 -28 -28 -28 -29 -29 -29 -29 -29 -29 -29 -29 -28
-19 -18 -18 -18 -18 -17 -18 -18 -18 -18 -18 -18 -18 -18 -18 -18 -19 -19 -19 -19 -19 -20 -21 -21 -22 -22 -23 -25 -27 -28 -28 -28 -29 -29 -29 -29 -29 -29 -29 -29 -29 -29 -29 -29
-19 -19 -19 -18 -18 -18 -18 -18 -18 -18 -18 -18 -18 -19 -19 -19 -19 -20 -20 -20 -21 -22 -23 -23 -24 -26 -27 -28 -28 -29 -29 -29 -29 -29 -29 -29 -29 -29 -29 -29 -29 -29 -29 -29
-19 -19 -19 -19 -19 -19 -19 -19 -19 -19 -19 -19 -19 -19 -19 -20 -20 -20 -21 -22 -23 -24 -25 -27 -28 -28 -29 -29 -29 -29 -29 -29 -29 -29 -29 -29 -29 -29 -29 -29 -29 -29 -29 -29
-20 -20 -20 -20 -20 -20 -20 -20 -19 -19 -19 -20 -20 -21 -21 -21 -22 -23 -23 -24 -25 -27 -28 -29 -29 -29 -29 -29 -29 -29 -29 -29 -29 -29 -29 -29 -29 -29 -29 -29 -29 -29 -29 -29
-21 -21 -21 -21 -21 -20 -20 -20 -20 -21 -22 -22 -22 -22 -23 -23 -23 -24 -26 -28 -28 -29 -29 -29 -29 -29 -29 -29 -29 -29 -29 -29 -30 -30 -30 -30 -30 -29 -29 -30 -30 -30 -30 -30
-22 -21 -21 -21 -21 -21 -22 -22 -22 -22 -22 -23 -23 -24 -24 -25 -27 -28 -28 -29 -29 -29 -29 -29 -29 -29 -29 -29 -30 -30 -30 -30 -30 -30 -30 -30 -30 -30 -30 -30 -30 -30 -30 -30
-22 -22 -22 -22 -22 -22 -23 -23 -23 -23 -24 -24 -25 -26 -27 -28 -29 -29 -29 -29 -29 -29 -29 -30 -29 -29 -30 -30 -30 -30 -30 -30 -30 -30 -30 -30 -30 -30 -30 -30 -30 -30 -30 -30
-22 -23 -23 -23 -23 -23 -24 -24 -24 -25 -26 -27 -28 -28 -29 -29 -29 -29 -29 -29 -30 -30 -30 -29 -29 -30 -30 -30 -30 -30 -30 -30 -30 -30 -30 -30 -30 -30 -30 -30 -30 -30 -29 -29
-24 -24 -25 -25 -25 -25 -26 -26 -27 -28 -28 -28 -29 -29 -29 -29 -30 -30 -30 -30 -29 -29 -29 -29 -30 -30 -30 -30 -30 -30 -30 -30 -30 -30 -30 -30 -30 -30 -30 -30 -30 -30 -30 -30
-26 -26 -27 -27 -27 -28 -28 -28 -29 -29 -29 -29 -29 -29 -29 -29 -29 -29 -29 -29 -29 -30 -30 -30 -30 -30 -30 -30 -30 -30 -30 -30 -30 -31 -31 -31 -31 -31 -31 -31 -32 -32 -32 -32
-28 -28 -28 -28 -29 -29 -29 -29 -29 -29 -29 -29 -29 -29 -29 -29 -29 -29 -29 -29 -30 -30 -30 -30 -30 -30 -30 -30 -31 -30 -31 -31 -31 -31 -31 -31 -31 -32 -33 -33 -34 -34 -34 -34
Height
5630 5636 5640 5647 5652 5656 5655 5660 5660 5671 5673 5681 5682 5683 5684 5686 5689 5692 5693 5694 5696 5697 5697 5698 5698 5697 5694 5691 5688 5685 5681 5678 5672 5665 5659 5654 5648 5641 5633 5623 5613 5603 5592 5580
5617 5626 5629 5632 5637 5641 5645 5649 5651 5656 5665 5671 5675 5674 5676 5678 5679 5679 5682 5684 5685 5685 5687 5687 5686 5683 5680 5677 5675 5671 5667 5661 5656 5650 5645 5640 5633 5625 5615 5606 5596 5585 5575 5563
5607 5616 5617 5617 5624 5632 5637 5641 5647 5647 5661 5661 5661 5664 5666 5665 5665 5667 5670 5672 5674 5675 5675 5673 5671 5669 5666 5663 5661 5657 5652 5647 5642 5637 5632 5625 5616 5608 5601 5592 5581 5570 5558 5547
5595 5600 5600 5609 5616 5624 5625 5632 5636 5639 5643 5646 5648 5651 5651 5653 5655 5657 5659 5660 5660 5661 5659 5658 5656 5654 5653 5650 5647 5642 5638 5634 5629 5624 5617 5609 5601 5595 5586 5576 5565 5553 5544 5535
5583 5586 5593 5600 5606 5615 5616 5624 5627 5627 5629 5633 5635 5637 5640 5642 5645 5647 5646 5645 5645 5646 5645 5643 5642 5640 5637 5634 5631 5627 5624 5620 5615 5608 5602 5595 5588 5580 5571 5559 5549 5541 5532 5524
5572 5575 5580 5589 5595 5602 5606 5611 5616 5618 5620 5624 5625 5625 5631 5632 5631 5631 5631 5631 5632 5631 5630 5629 5628 5626 5624 5622 5619 5614 5609 5605 5600 5594 5589 5582 5574 5564 5554 5545 5536 5528 5522 5515
5561 5564 5572 5578 5583 5587 5591 5605 5604 5606 5608 5610 5613 5619 5619 5619 5621 5621 5620 5619 5619 5618 5618 5617 5616 5613 5610 5607 5603 5599 5594 5590 5586 5580 5574 5566 5556 5547 5539 5531 5524 5517 5512 5505
5550 5555 5562 5568 5569 5576 5583 5584 5586 5589 5593 5597 5600 5603 5605 5607 5609 5610 5609 5609 5607 5606 5605 5603 5600 5598 5595 5592 5588 5584 5580 5575 5570 5564 5557 5549 5540 5532 5525 5518 5513 5507 5501 5496
5543 5548 5553 5557 5560 5562 5565 5569 5572 5574 5578 5583 5587 5590 5593 5594 5594 5594 5594 5594 5593 5592 5590 5589 5586 5583 5581 5577 5574 5570 5565 5560 5554 5547 5540 5533 5525 5518 5511 5506 5500 5495 5489 5484
5530 5537 5541 5544 5548 5550 5554 5556 5558 5561 5563 5567 5570 5573 5575 5576 5577 5578 5578 5578 5577 5576 5575 5573 5571 5569 5567 5563 5558 5554 5549 5543 5536 5530 5524 5517 5511 5504 5498 5493 5488 5484 5478 5473
5517 5524 5526 5530 5533 5537 5542 5546 5548 5551 5553 5555 5557 5560 5563 5564 5564 5564 5563 5563 5562 5561 5560 5560 5558 5555 5552 5548 5544 5539 5533 5527 5521 5515 5509 5502 5496 5491 5485 5479 5476 5472 5466 5461
5508 5507 5509 5517 5521 5526 5530 5532 5535 5538 5541 5543 5545 5546 5548 5550 5550 5550 5550 5551 5551 5550 5548 5545 5543 5540 5537 5532 5527 5522 5516 5510 5505 5500 5494 5489 5484 5477 5473 5470 5464 5458 5452 5446
5494 5497 5502 5507 5510 5513 5516 5519 5522 5525 5528 5530 5532 5534 5535 5535 5536 5536 5537 5537 5535 5534 5532 5529 5526 5523 5519 5515 5509 5504 5499 5494 5490 5484 5480 5476 5472 5470 5466 5458 5451 5447 5442 5434
5483 5489 5494 5498 5500 5502 5505 5507 5510 5513 5516 5518 5520 5522 5523 5523 5523 5522 5521 5521 5520 5518 5515 5513 5510 5506 5502 5498 5493 5488 5483 5479 5475 5471 5468 5465 5462 5458 5454 5450 5448 5441 5432 5425
5472 5477 5483 5486 5489 5491 5494 5496 5498 5500 5502 5504 5505 5506 5507 5508 5508 5508 5508 5506 5503 5501 5498 5495 5492 5490 5486 5481 5476 5472 5468 5465 5463 5460 5457 5454 5450 5446 5442 5437 5431 5427 5421 5416
5460 5467 5471 5474 5476 5478 5480 5483 5484 5485 5487 5488 5489 5490 5493 5495 5495 5493 5491 5489 5487 5485 5483 5479 5475 5474 5469 5464 5461 5458 5455 5453 5451 5449 5445 5441 5436 5432 5429 5425 5420 5414 5409 5405
5452 5457 5459 5462 5464 5465 5468 5469 5471 5473 5474 5476 5478 5480 5480 5480 5479 5478 5476 5474 5471 5469 5466 5462 5457 5455 5453 5450 5448 5446 5443 5442 5438 5435 5431 5427 5423 5419 5414 5411 5407 5403 5398 5395
5442 5445 5449 5450 5452 5454 5457 5458 5460 5461 5462 5463 5465 5464 5464 5464 5463 5463 5460 5458 5455 5452 5448 5445 5441 5439 5438 5437 5436 5433 5431 5428 5423 5420 5415 5411 5408 5405 5400 5397 5394 5390 5387 5384
5431 5435 5437 5439 5441 5443 5445 5447 5449 5450 5451 5451 5451 5450 5450 5449 5448 5447 5446 5443 5439 5437 5432 5432 5430 5427 5425 5423 5421 5418 5416 5412 5408 5403 5399 5396 5392 5389 5385 5382 5379 5377 5374 5372
5422 5425 5426 5427 5429 5431 5432 5435 5438 5440 5437 5437 5437 5437 5435 5435 5434 5433 5431 5428 5426 5423 5421 5418 5416 5414 5411 5407 5404 5402 5399 5395 5392 5389 5384 5380 5376 5372 5368 5366 5364 5362 5360 5358
5411 5413 5414 5415 5419 5420 5421 5422 5424 5425 5425 5425 5424 5424 5422 5421 5419 5417 5416 5414 5412 5410 5408 5405 5403 5400 5396 5392 5388 5385 5382 5379 5376 5372 5366 5362 5358 5353 5350 5348 5346 5344 5344 5342
5401 5403 5404 5405 5406 5408 5408 5410 5412 5412 5412 5411 5410 5409 5408 5406 5404 5403 5402 5401 5398 5395 5393 5391 5387 5384 5380 5376 5372 5370 5366 5362 5357 5352 5347 5343 5339 5335 5332 5329 5327 5326 5326 5325
5393 5394 5395 5395 5396 5398 5399 5400 5400 5400 5400 5399 5398 5396 5394 5392 5391 5390 5389 5387 5385 5382 5377 5374 5370 5367 5363 5360 5356 5351 5346 5341 5335 5330 5326 5321 5317 5314 5311 5309 5307 5306 5305 5305
5384 5386 5387 5388 5389 5390 5391 5390 5389 5388 5387 5385 5385 5384 5383 5381 5379 5377 5375 5372 5369 5366 5362 5358 5354 5350 5346 5342 5337 5332 5326 5320 5314 5308 5303 5298 5294 5290 5288 5285 5283 5281 5280 5280
5377 5377 5378 5379 5379 5378 5378 5378 5378 5377 5377 5376 5376 5374 5372 5369 5366 5363 5361 5358 5354 5349 5345 5341 5336 5331 5325 5320 5314 5308 5301 5294 5288 5282 5277 5272 5268 5264 5260 5257 5253 5250 5248 5247
5367 5368 5368 5368 5369 5369 5370 5370 5370 5369 5367 5366 5363 5361 5359 5356 5353 5349 5345 5340 5336 5331 5326 5320 5314 5308 5302 5295 5288 5281 5275 5269 5262 5256 5250 5246 5240 5234 5228 5223 5218 5215 5212 5212
5358 5360 5361 5362 5362 5361 5361 5360 5359 5358 5356 5354 5351 5348 5344 5340 5336 5332 5328 5323 5317 5311 5304 5298 5291 5284 5276 5269 5263 5256 5248 5242 5235 5228 5222 5215 5208 5202 5196 5192 5189 5186 5184 5183
Wind_Speed
58 57 57 52 50 52 55 53 54 41 40 35 35 33 34 34 36 37 39 38 38 40 42 43 46 47 50 54 56 55 56 58 61 67 69 71 73 74 78 81 85 88 91 93
53 53 51 52 47 46 48 49 52 51 40 37 34 36 34 34 35 37 38 40 42 43 43 45 48 51 54 56 57 57 58 62 66 69 71 72 72 76 80 83 86 90 93 95
53 50 50 48 44 42 46 46 47 48 35 37 40 38 35 37 41 42 41 41 42 44 45 48 51 53 55 56 58 59 61 64 67 69 71 72 75 79 83 84 88 92 93 79
47 51 54 47 45 33 34 39 44 46 43 40 41 41 44 45 43 41 42 44 45 47 48 51 53 56 57 59 58 59 62 65 68 69 71 74 78 81 83 86 89 89 74 61
52 51 49 46 46 41 39 34 35 43 44 43 45 46 47 45 45 45 46 44 47 47 51 53 54 56 56 55 56 59 62 66 67 69 73 77 79 81 84 86 84 75 59 53
59 54 53 49 52 47 45 37 38 39 43 44 45 50 42 37 43 45 46 47 46 51 53 55 56 55 55 56 59 63 65 66 69 72 75 77 79 82 84 83 75 60 52 49
55 58 56 54 55 54 48 42 39 37 37 45 43 40 40 44 45 46 47 50 52 54 57 58 56 55 56 58 62 63 64 67 71 72 74 77 81 82 81 77 61 53 49 48
53 53 52 57 57 54 48 47 48 46 46 45 45 45 46 49 52 53 53 56 57 58 61 59 55 55 57 59 61 63 66 69 70 73 76 79 80 78 75 62 52 48 46 47
60 55 56 57 58 59 57 57 56 55 54 52 54 53 53 51 52 54 55 57 58 61 58 53 54 57 58 59 62 65 68 70 72 75 76 78 76 70 59 52 49 46 46 47
61 64 61 60 61 60 59 60 58 57 56 56 57 57 55 54 53 55 55 55 55 53 51 54 54 56 60 63 66 67 69 71 73 75 76 74 68 58 53 49 47 47 47 47
62 60 59 60 59 59 58 59 59 59 55 55 56 55 53 55 55 55 54 52 51 50 52 54 57 60 63 65 65 67 69 70 72 74 72 67 59 52 48 48 48 47 49 50
44 44 48 49 51 53 53 53 53 53 54 54 51 49 51 52 51 50 46 45 49 52 55 57 59 61 62 64 65 67 68 70 70 68 65 59 51 48 46 48 49 50 53 56
38 35 36 39 40 35 33 34 37 39 39 39 41 45 48 51 51 51 50 52 53 53 57 59 60 61 62 63 65 66 68 70 67 62 55 50 46 44 45 48 51 54 57 59
46 44 39 38 39 38 38 40 42 43 43 43 44 46 48 53 56 57 54 52 55 59 59 58 58 59 62 65 68 67 66 64 57 52 47 45 45 45 48 50 52 54 54 48
54 53 52 53 53 50 48 49 49 45 44 46 48 51 53 54 54 50 51 55 57 56 56 56 59 63 67 64 63 62 57 52 47 44 44 44 46 49 52 53 54 50 45 44
56 59 58 54 47 47 41 41 43 46 49 50 49 48 45 42 47 54 55 54 53 55 59 62 64 64 61 59 56 50 47 46 45 44 46 48 51 53 54 54 50 45 44 42
46 45 41 39 39 40 39 42 46 44 43 42 42 43 48 52 53 54 55 55 58 62 60 59 61 59 53 46 43 42 44 46 46 48 51 53 56 55 54 50 46 43 40 40
38 39 42 43 42 42 43 39 39 38 39 43 48 52 54 53 51 54 58 60 58 56 55 55 48 41 38 38 40 43 46 49 51 53 56 58 58 56 50 47 44 42 41 40
39 36 33 32 33 31 30 35 40 42 43 46 48 51 53 54 57 59 55 53 52 48 44 38 35 37 40 44 46 48 50 53 56 57 56 54 53 53 51 48 46 44 43 42
37 36 36 32 32 35 37 41 44 47 47 49 51 52 53 54 52 51 51 48 43 39 35 37 40 44 47 49 52 53 53 50 49 51 55 56 57 57 55 53 51 48 47 46
36 37 36 36 38 43 46 44 44 45 45 46 47 46 47 49 49 47 42 37 37 39 43 46 47 49 51 53 53 50 48 50 53 57 59 61 61 59 58 55 53 50 49 47
33 34 36 37 39 41 38 39 41 42 42 42 43 44 44 43 39 38 39 40 43 45 47 49 50 51 51 50 50 52 55 59 64 66 67 66 64 61 58 57 55 54 52 50
37 35 31 31 31 33 35 36 38 39 41 43 42 40 39 38 40 40 42 45 47 49 50 52 53 52 50 52 56 59 62 66 71 74 72 69 68 64 61 60 59 59 58 57
27 28 29 30 32 34 36 37 39 40 39 38 39 39 40 40 41 43 46 48 50 53 55 54 53 54 57 60 63 67 71 76 79 75 72 71 70 68 66 66 67 68 68 66
27 26 27 29 31 31 33 34 35 35 35 36 37 38 40 43 45 47 50 53 54 54 54 55 58 62 65 68 73 77 81 81 76 75 75 73 73 74 76 78 78 76 75 73
24 24 24 24 25 27 28 28 30 31 33 35 38 40 43 46 49 52 53 54 55 57 59 63 67 71 75 79 81 80 77 78 77 77 78 79 82 83 84 82 77 74 71 68
18 19 21 23 25 26 27 29 31 33 36 38 41 45 47 50 52 53 55 57 60 64 69 73 76 78 78 77 78 79 78 79 81 83 85 87 85 79 72 66 61 56 54 52
Wind_Direction
245 246 246 246 246 250 247 245 248 254 255 260 261 257 254 246 246 251 255 256 256 259 263 267 271 277 280 283 284 284 287 289 288 290 295 297 297 299 301 303 303 304 304 308
237 237 240 244 245 242 247 247 249 254 253 259 260 258 264 266 263 259 260 262 264 265 269 272 278 281 282 283 284 286 289 287 289 292 294 295 298 300 302 303 304 304 308 311
238 243 243 244 239 252 251 246 248 250 260 255 254 258 260 260 259 259 262 265 269 273 275 274 275 281 282 283 286 287 285 287 289 291 294 297 299 301 302 304 303 306 310 317
239 241 241 236 243 246 247 242 244 249 255 253 256 256 254 256 261 265 269 269 273 276 275 275 280 284 285 284 284 284 287 288 290 292 295 298 299 300 302 302 304 310 315 314
244 242 242 243 233 241 251 249 249 249 249 251 253 255 256 258 261 266 268 270 271 276 276 277 282 284 286 286 285 284 285 287 291 294 295 296 299 300 299 303 309 314 313 311
240 244 242 240 237 246 248 248 246 253 253 253 255 256 258 260 260 262 265 269 274 274 278 282 286 287 284 284 285 285 287 290 291 292 294 297 297 296 300 307 312 312 309 308
237 242 245 242 240 244 249 257 255 258 253 249 256 259 258 259 265 267 269 271 274 278 283 284 283 281 280 280 282 284 286 288 289 292 294 293 294 299 305 310 311 308 306 307
239 242 240 239 241 241 251 255 256 256 250 251 254 258 262 266 270 272 274 276 275 277 279 280 279 279 279 281 282 284 286 287 290 290 290 292 298 305 307 308 305 303 305 307
239 240 238 241 246 248 253 253 254 256 256 255 257 261 266 268 271 271 274 275 276 275 275 276 275 275 281 282 283 284 285 286 287 287 291 298 303 305 304 302 303 303 304 305
244 240 238 239 241 245 250 254 257 260 262 263 265 269 270 272 275 276 275 274 273 274 274 273 277 277 278 280 282 283 283 285 287 292 298 302 304 303 301 302 302 303 303 305
245 245 247 247 247 248 251 254 258 261 263 265 268 271 273 271 271 269 268 270 271 271 272 274 276 277 278 279 280 282 285 289 295 299 301 303 301 300 301 302 303 303 305 305
239 240 242 244 246 249 252 256 260 262 263 264 266 268 269 270 270 270 269 269 271 272 275 275 275 275 277 281 283 288 292 294 297 300 301 300 298 300 301 302 304 307 308 307
237 237 243 245 244 243 248 253 257 260 265 268 269 270 270 268 267 267 268 269 271 273 272 273 276 279 281 285 289 291 294 296 298 297 296 296 297 298 298 303 307 308 309 310
247 247 248 252 256 257 257 259 267 273 277 272 270 271 269 267 266 264 265 269 272 272 274 276 278 282 286 288 290 293 295 295 293 293 294 295 295 296 297 299 301 304 307 310
252 255 258 259 265 274 271 269 269 270 268 268 266 262 259 259 263 268 269 269 270 271 274 279 281 282 285 290 291 291 291 288 288 290 291 293 296 298 300 302 305 305 306 309
255 255 259 262 265 266 258 260 262 260 259 257 255 255 262 267 268 267 267 268 274 278 278 280 283 285 287 289 289 286 285 285 285 288 291 296 298 299 301 303 303 304 306 307
249 252 251 250 251 255 257 257 255 252 253 257 262 264 265 264 264 266 270 274 276 278 282 284 284 286 286 284 281 281 283 285 287 291 293 295 296 298 299 300 300 301 302 304
233 237 244 245 248 248 247 247 251 254 258 261 261 260 260 263 267 273 274 276 280 283 283 282 281 280 281 281 280 283 286 288 289 291 293 294 295 297 297 297 297 297 298 298
232 230 234 243 245 257 263 254 256 258 258 258 259 262 266 271 274 278 280 282 282 280 278 279 278 281 283 286 287 288 289 290 291 293 294 295 296 296 296 297 295 294 294 294
246 250 257 264 264 261 259 255 252 252 257 263 268 272 276 278 280 281 281 279 277 277 279 282 283 285 287 288 289 290 291 293 295 298 299 299 298 297 297 296 294 293 291 289
263 262 261 265 257 255 255 256 258 263 270 274 274 274 275 276 277 277 276 277 279 280 281 284 285 286 286 287 288 290 292 294 298 300 303 303 300 297 295 293 291 289 287 286
253 245 243 245 251 258 264 272 273 272 272 272 273 274 274 274 274 277 280 283 284 283 282 283 284 286 287 288 289 289 291 295 298 300 300 299 298 296 293 292 291 289 288 286
249 249 254 260 263 265 267 269 272 273 272 272 273 274 278 280 282 283 282 281 281 283 286 287 287 287 285 287 290 292 294 297 299 299 297 296 295 294 292 291 291 290 288 285
250 251 253 256 261 264 266 268 270 271 273 274 276 277 279 281 280 281 281 283 284 286 286 286 285 285 286 289 291 293 294 296 298 296 294 293 292 290 290 290 289 288 286 282
251 255 258 260 264 267 268 267 268 271 273 276 277 278 278 279 280 282 284 284 285 284 284 284 285 288 290 291 293 294 295 296 295 294 293 292 292 292 292 292 290 287 283 278
257 260 262 263 263 265 268 271 274 275 276 277 279 280 282 283 284 284 284 284 284 284 286 290 293 295 296 296 296 296 295 295 294 293 293 293 293 292 292 290 287 283 280 276
257 260 263 266 270 273 275 275 275 276 278 281 284 285 285 286 287 288 289 290 291 292 293 295 296 296 296 296 297 297 296 296 295 295 294 294 294 292 288 286 283 281 278 274